Weather Roundup
Issued by NWS Corpus Christi, TX

Home | Current Version | Previous Version | Text Only | Print | Product List | Glossary Off
Versions: 1 2 3 4 5 6 7 8 9 10 11 12 13 14 15 16 17 18 19 20 21 22 23 24 25 26 27 28 29 30 31 32 33 34 35 36 37 38 39 40 41 42 43 44 45 46 47 48 49 50

000
ASUS44 KCRP 172310
HRRCRP

SOUTH TEXAS REGIONAL WEATHER ROUNDUP
NATIONAL WEATHER SERVICE CORPUS CHRISTI TX
500 PM CST FRI NOV 17 2017


TXZ229>244-180000-
...CORPUS CHRISTI AREA OBSERVATIONS...

CITY           SKY/WX    TMP DP  RH WIND       PRES   REMARKS
CORPUS CHRISTI PTCLDY    80  69  69 S20       29.90F
NAS CORPUS CHR PTCLDY    79  72  79 S20       29.90F
ROCKPORT       CLEAR     77  71  82 S10G20    29.91F
KINGSVILLE ARP FAIR      83  74  73 E10       29.88S HX  90
KINGSVILLE NAS PTCLDY    81  73  76 SE17G25   29.89S
ALICE          CLEAR     83  69  62 SE15      29.88S
$$

...VICTORIA AREA OBSERVATIONS...

CITY           SKY/WX    TMP DP  RH WIND       PRES   REMARKS
PORT LAVACA    NOT AVBL
VICTORIA       PTCLDY    79  67  66 S18       29.90F
BEEVILLE       FAIR      81  71  71 SE16G22   29.89S
PLEASANTON     CLEAR     84  63  49 S9        29.88S
SAN ANTONIO    PTCLDY    82  63  52 S13       29.88F
$$

...LAREDO AREA OBSERVATIONS...

CITY           SKY/WX    TMP DP  RH WIND       PRES   REMARKS
LAREDO         CLEAR     86  65  49 S13       29.86S
COTULLA        CLEAR     87  61  41 SE13      29.85F
DEL RIO        CLEAR     80  66  62 SE9       29.84F
MCALLEN        CLEAR     84  69  60 SE14      29.89S
HEBBRONVILLE   CLEAR     83  61  46 S13       29.89F
$$

...OTHER TEXAS OBSERVATIONS...

CITY           SKY/WX    TMP DP  RH WIND       PRES   REMARKS
BROWNSVILLE    CLEAR     82  69  64 SE15      29.92S
HOUSTON        MOCLDY    82  65  56 S9        29.90F
COL. STATION   PTCLDY    82  67  60 S14       29.86F
AUSTIN         MOCLDY    82  65  56 S15G25    29.85F
WACO           PTCLDY    80  64  58 S14       29.80F
FORT WORTH     MOCLDY    82  65  56 S21       29.73F
WICHITA FALLS  CLEAR     82  58  43 S17       29.66F
LUBBOCK        PTCLDY    82  24  12 SW16      29.77S
EL PASO        PTSUNNY   80  23  12 W14       29.95S
$$

...MARINE OBSERVATIONS...

STATION/POSITION TIME  SKY/WX   TEMP    WIND        PRES    VSBY  WAVE   SWELL
                                AIR SEA DIR/SP/G                  HT/PER HT/PER
                 (UTC)          (F)     (DEG/KT/KT) (MB)    (MI)  (FT/S) (FT/S)
PORT ARANSAS     2300            76 77  140/ 17/ 18 1012.8F
BUOY 90 E PORT A 2150            78 78  170/ 12/ 14 1014.3          3/ 5   2/ 7
BUOY 200 E PT IS 2250            78 81  140/ 10/ 12 1015.9R         2/ 7   2/ 7
BUOY 15 E GALVES 2150            75 73  180/  8/  8 1014.5          2/ 5   2/ 5
$$




USA.gov is the U.S. government's official web portal to all federal, state and local government web resources and services.